Midland Airpark, TX

5:40 AM CDT on May 30, 2017 (GMT -0500)
Midland

Weather History for KMDD - November, 2012

Change the Weather History Date:

Saturday, November 3, 2012

  Actual Average (KMAF) Record (KMAF)
Temperature  
Mean Temperature 64 °F -  
Max Temperature 71 °F 66 °F 86 °F (1988)
Min Temperature 57 °F 43 °F 22 °F (1991)
Degree Days  
Heating Degree Days 1    
Growing Degree Days 14 (Base 50)    
Moisture  
Dew Point 50 °F    
Average Humidity 59    
Maximum Humidity 77    
Minimum Humidity 41    
Precipitation  
Precipitation 0.00 in - - ()
Sea Level Pressure  
Sea Level Pressure 30.09 in    
Wind  
Wind Speed 7 mph (ENE)    
Max Wind Speed 12 mph    
Max Gust Speed 21 mph    
Visibility 10 miles    
Events Thunderstorm    
Averages and records for this station are not official NWS values.
T = Trace of Precipitation, MM = Missing Value Source: NWS Daily Summary

Daily Weather History Graph

Daily Weather History Graph

Search for Another Location

Airport or City:

Trip Planner

Search our weather history database for the weather conditions in past years. The results will help you decide how hot, cold, wet, or windy it might be!

Date:

Astronomy

Nov. 03, 2012 Rise Set
Actual Time 8:07 AM CDT 6:56 PM CDT
Civil Twilight 7:41 AM CDT 7:21 PM CDT
Nautical Twilight 7:12 AM CDT 7:50 PM CDT
Astronomical Twilight 6:44 AM CDT 8:19 PM CDT
Moon 10:44 PM CDT (11/3) 12:06 PM CDT (11/3)
Length of Visible Light 11h 39m
Length of Day
10h 49m
Waning Gibbous, 80% of the Moon is Illuminated
Nov 3
Waning Gibbous
Nov 6
Last Quarter
Nov 13
New
Nov 20
First Quarter
Nov 28
Full

Hourly Weather History & Observations

Time (CDT) Temp. Dew Point Humidity Pressure Visibility Wind Dir Wind Speed Gust Speed Precip Events Conditions
12:15 AM 67.1 °F 50.7 °F 56% 29.99 in 10.0 mi South 10.4 mph - N/A   Clear
12:35 AM 66.7 °F 50.9 °F 57% 29.99 in 10.0 mi South 10.4 mph - N/A   Clear
12:55 AM 66.2 °F 51.4 °F 59% 29.99 in 10.0 mi South 10.4 mph - N/A   Clear
1:15 AM 65.8 °F 51.8 °F 60% 29.99 in 10.0 mi South 10.4 mph - N/A   Clear
1:35 AM 65.3 °F 52.0 °F 62% 30.00 in 10.0 mi SSW 8.1 mph - N/A   Clear
2:15 AM 64.2 °F 52.2 °F 65% 29.99 in 10.0 mi South 10.4 mph - N/A   Clear
2:35 AM 63.7 °F 52.2 °F 66% 29.99 in 10.0 mi South 6.9 mph - N/A   Clear
2:55 AM 63.1 °F 52.2 °F 67% 29.99 in 10.0 mi South 5.8 mph - N/A   Clear
3:15 AM 62.8 °F 52.3 °F 69% 30.00 in 10.0 mi South 4.6 mph - N/A   Clear
3:35 AM 62.1 °F 52.3 °F 70% 30.00 in 10.0 mi South 3.5 mph - N/A   Clear
3:55 AM 61.3 °F 52.2 °F 72% 30.00 in 10.0 mi South 4.6 mph - N/A   Clear
4:15 AM 61.2 °F 52.2 °F 72% 30.00 in 10.0 mi SSW 4.6 mph - N/A   Clear
4:35 AM 61.0 °F 52.2 °F 73% 30.00 in 10.0 mi South 5.8 mph - N/A   Clear
4:55 AM 60.8 °F 52.2 °F 73% 30.00 in 10.0 mi South 4.6 mph - N/A   Clear
5:15 AM 61.2 °F 52.2 °F 72% 30.01 in 10.0 mi South 4.6 mph - N/A   Clear
5:35 AM 61.0 °F 52.2 °F 73% 30.01 in 10.0 mi South 5.8 mph - N/A   Clear
5:55 AM 61.2 °F 52.0 °F 72% 30.02 in 10.0 mi SW 4.6 mph - N/A   Clear
6:15 AM 61.5 °F 52.0 °F 71% 30.02 in 10.0 mi South 5.8 mph - N/A   Clear
6:35 AM 61.0 °F 51.8 °F 72% 30.03 in 10.0 mi SW 3.5 mph - N/A   Clear
6:55 AM 61.7 °F 51.8 °F 70% 30.03 in 10.0 mi SW 5.8 mph - N/A   Clear
7:15 AM 61.3 °F 52.0 °F 71% 30.03 in 10.0 mi SW 5.8 mph - N/A   Clear
7:35 AM 61.3 °F 51.8 °F 71% 30.06 in 10.0 mi North 6.9 mph 20.7 mph N/A   Clear
7:55 AM 63.5 °F 51.8 °F 66% 30.07 in 10.0 mi Calm Calm - N/A   Clear
8:15 AM 61.3 °F 51.8 °F 71% 30.08 in 10.0 mi Calm Calm - N/A   Clear
8:35 AM 59.0 °F 51.3 °F 75% 30.09 in 10.0 mi NNE 5.8 mph - N/A   Clear
8:55 AM 57.9 °F 50.9 °F 77% 30.10 in 10.0 mi NE 4.6 mph - N/A   Clear
9:15 AM 58.5 °F 51.4 °F 77% 30.11 in 10.0 mi ENE 5.8 mph - N/A   Clear
9:35 AM 59.7 °F 52.2 °F 76% 30.12 in 10.0 mi NE 4.6 mph - N/A   Clear
10:15 AM 61.2 °F 52.7 °F 74% 30.12 in 10.0 mi ENE 6.9 mph - N/A   Clear
10:35 AM 63.1 °F 53.2 °F 70% 30.12 in 10.0 mi NE 6.9 mph - N/A   Clear
10:55 AM 65.8 °F 53.8 °F 65% 30.13 in 10.0 mi East 9.2 mph - N/A   Clear
11:15 AM 68.0 °F 53.6 °F 60% 30.14 in 10.0 mi ENE 8.1 mph - N/A   Clear
11:35 AM 68.9 °F 54.0 °F 59% 30.15 in 10.0 mi NE 8.1 mph - N/A   Clear
11:55 AM 68.9 °F 53.8 °F 58% 30.14 in 10.0 mi NE 6.9 mph - N/A   Clear
12:15 PM 69.4 °F 52.9 °F 56% 30.15 in 10.0 mi NE 9.2 mph - N/A   Clear
12:35 PM 69.8 °F 52.3 °F 54% 30.15 in 10.0 mi ENE 9.2 mph - N/A   Clear
12:55 PM 70.5 °F 51.1 °F 50% 30.14 in 10.0 mi NNE 5.8 mph - N/A   Clear
1:15 PM 70.2 °F 50.0 °F 49% 30.14 in 10.0 mi NE 8.1 mph - N/A   Clear
1:35 PM 70.9 °F 49.5 °F 47% 30.13 in 10.0 mi North 10.4 mph - N/A   Clear
1:55 PM 71.4 °F 48.9 °F 45% 30.12 in 10.0 mi NNE 8.1 mph - N/A   Clear
2:15 PM 71.2 °F 48.0 °F 44% 30.12 in 10.0 mi North 11.5 mph - N/A   Clear
2:35 PM 70.7 °F 47.5 °F 44% 30.12 in 10.0 mi NE 8.1 mph - N/A   Clear
2:55 PM 70.2 °F 47.5 °F 44% 30.12 in 10.0 mi NNE 8.1 mph - N/A   Clear
3:15 PM 70.5 °F 47.5 °F 44% 30.11 in 10.0 mi NNE 4.6 mph - N/A   Clear
3:35 PM 70.5 °F 47.1 °F 43% 30.10 in 10.0 mi ENE 9.2 mph - N/A   Clear
3:55 PM 71.1 °F 46.9 °F 42% 30.08 in 10.0 mi NE 11.5 mph - N/A   Clear
4:15 PM 71.2 °F 46.8 °F 42% 30.07 in 10.0 mi ENE 11.5 mph - N/A   Clear
4:35 PM 71.6 °F 47.1 °F 42% 30.08 in 10.0 mi NE 9.2 mph - N/A   Clear
4:55 PM 71.8 °F 47.1 °F 41% 30.08 in 10.0 mi NE 8.1 mph - N/A   Clear
5:15 PM 71.8 °F 47.3 °F 42% 30.09 in 10.0 mi NE 9.2 mph - N/A   Clear
5:35 PM 71.6 °F 47.3 °F 42% 30.09 in 10.0 mi NNE 9.2 mph - N/A   Clear
5:55 PM 71.2 °F 47.3 °F 42% 30.09 in 10.0 mi NE 9.2 mph - N/A   Clear
6:15 PM 70.3 °F 47.3 °F 44% 30.10 in 10.0 mi NNE 6.9 mph - N/A   Clear
6:35 PM 69.4 °F 47.3 °F 45% 30.10 in 10.0 mi North 9.2 mph - N/A   Scattered Clouds
6:55 PM 68.5 °F 47.3 °F 47% 30.11 in 10.0 mi NNE 9.2 mph - N/A   Mostly Cloudy
7:15 PM 67.1 °F 46.8 °F 48% 30.12 in 10.0 mi NNE 8.1 mph - N/A   Scattered Clouds
7:35 PM 66.2 °F 46.4 °F 49% 30.12 in 10.0 mi NNE 6.9 mph - N/A   Scattered Clouds
7:55 PM 65.5 °F 46.0 °F 49% 30.14 in 10.0 mi NNE 6.9 mph - N/A   Mostly Cloudy
8:15 PM 65.1 °F 45.7 °F 49% 30.14 in 10.0 mi ENE 5.8 mph - N/A   Overcast
8:35 PM 64.8 °F 45.9 °F 50% 30.14 in 10.0 mi ENE 5.8 mph - N/A   Overcast
8:55 PM 64.6 °F 45.9 °F 51% 30.15 in 10.0 mi ENE 4.6 mph - N/A   Overcast
9:15 PM 64.4 °F 46.0 °F 51% 30.15 in 10.0 mi East 5.8 mph - N/A   Overcast
9:35 PM 64.0 °F 46.4 °F 53% 30.15 in 10.0 mi ENE 5.8 mph - N/A   Mostly Cloudy
9:55 PM 62.8 °F 46.4 °F 55% 30.15 in 10.0 mi NE 5.8 mph - N/A   Scattered Clouds
10:15 PM 61.2 °F 46.4 °F 58% 30.15 in 10.0 mi NE 3.5 mph - N/A   Clear
10:35 PM 60.1 °F 46.6 °F 61% 30.16 in 10.0 mi East 4.6 mph - N/A Thunderstorm Clear
10:55 PM 59.9 °F 46.9 °F 62% 30.18 in 10.0 mi ENE 5.8 mph - N/A   Clear
11:15 PM 59.7 °F 47.3 °F 63% 30.18 in 10.0 mi ENE 5.8 mph - N/A   Clear
11:35 PM 59.2 °F 47.3 °F 65% 30.18 in 10.0 mi ENE 6.9 mph - N/A   Scattered Clouds
11:55 PM 59.0 °F 47.3 °F 65% 30.18 in 10.0 mi NE 5.8 mph - N/A   Mostly Cloudy